GFSSW_sfc_wetblb_123.txt.gz
Wetbulb
58.03 57.95 57.75 57.93 58.24 57.63 57.71 57.80 57.95 57.97 58.03 58.22 58.39 58.40 58.60 58.99 58.50 56.83 53.10 57.07 60.02 67.14 67.47 59.98 59.57 59.37 61.59 60.89 67.44 70.20 58.91 57.22 57.87 58.16 59.60 65.64 64.27 67.69 68.65 64.47 64.82 65.78 64.61 67.38 70.04
58.00 57.84 57.61 57.21 57.66 57.77 57.80 58.03 58.12 58.27 58.09 58.11 58.28 58.19 58.45 58.93 54.90 53.93 62.33 69.86 67.78 68.64 54.90 59.77 57.89 59.77 57.26 60.50 63.81 64.08 58.43 59.82 62.84 63.87 62.91 65.46 65.95 66.29 64.20 64.41 63.12 63.56 67.14 69.04 69.31
57.67 57.47 57.36 57.95 57.63 57.33 57.25 57.22 57.45 57.79 57.96 58.06 58.00 58.04 58.54 57.78 52.90 55.97 70.34 69.15 68.97 65.26 53.68 58.34 62.00 60.84 57.44 59.02 63.04 64.61 60.77 64.11 64.74 65.32 66.11 65.19 65.18 67.59 64.19 61.31 63.21 62.10 64.50 68.01 67.52
57.50 57.26 57.64 57.75 57.68 57.55 57.29 57.19 57.29 57.27 57.40 57.57 57.76 58.04 58.69 54.73 49.00 59.10 69.46 69.95 68.36 56.95 52.19 54.46 57.80 55.50 54.34 55.75 64.19 61.07 64.05 65.52 65.47 65.16 64.25 63.80 65.92 64.13 65.16 64.32 65.75 65.31 65.70 67.62 66.82
57.24 57.26 57.46 57.51 57.50 57.51 57.38 57.32 56.98 56.73 56.74 56.83 57.32 57.85 55.41 52.39 53.81 62.27 71.11 69.06 61.67 53.73 49.70 52.33 55.70 55.78 53.72 57.29 63.94 62.37 64.72 65.61 65.35 64.26 64.20 65.05 64.32 63.76 64.35 66.91 67.33 66.69 66.80 66.61 67.04
57.41 57.44 57.33 57.50 57.21 57.43 57.34 57.27 56.93 57.00 57.25 57.04 57.12 57.45 52.34 48.60 62.29 64.15 63.72 63.44 58.08 51.14 49.77 53.86 57.38 57.78 55.66 55.66 62.16 63.69 64.13 63.65 64.60 63.63 63.95 63.72 63.83 65.03 65.33 67.51 66.08 65.68 64.19 65.56 66.52
57.67 57.43 57.36 57.07 57.06 57.31 57.33 56.59 56.33 56.38 56.86 57.84 57.52 56.52 52.37 52.91 60.82 63.41 60.56 57.05 54.87 50.21 50.43 56.67 60.13 56.88 56.41 54.76 65.78 63.78 60.51 62.04 62.53 62.84 62.62 63.43 60.67 60.88 65.86 66.25 64.80 64.38 63.84 64.15 64.08
57.46 57.45 57.29 57.09 57.10 56.87 56.65 56.52 56.09 56.74 57.01 58.07 57.88 54.86 49.08 60.81 59.76 59.04 59.59 55.52 54.06 51.96 52.38 58.56 60.39 56.82 53.30 56.18 64.00 61.18 60.56 55.12 60.20 62.09 62.29 61.96 55.61 61.81 65.60 64.65 62.92 63.41 63.98 64.34 65.41
57.82 56.99 56.79 56.45 56.45 56.57 56.36 56.03 56.61 58.18 58.37 58.63 54.43 51.51 52.19 59.75 53.30 57.05 58.97 57.55 53.65 52.98 52.48 56.88 57.90 53.02 54.09 49.79 56.03 58.68 52.00 55.20 56.38 61.99 60.63 60.81 56.65 62.36 65.31 64.18 62.17 62.12 62.58 63.59 65.36
57.77 57.33 56.57 56.53 56.34 55.77 55.77 55.84 57.22 57.40 58.43 59.07 57.94 51.09 55.79 54.76 53.92 56.57 59.89 58.77 53.88 55.35 54.35 54.40 51.96 48.11 48.23 45.41 42.36 53.27 53.77 56.34 55.77 58.87 59.88 58.28 57.93 61.05 62.90 63.65 61.72 61.42 62.59 62.68 64.58
57.59 56.76 56.24 56.08 55.81 54.92 54.16 53.41 53.16 53.21 56.15 54.96 54.29 55.05 55.63 56.38 58.22 57.70 59.43 56.33 54.52 51.45 47.26 51.00 45.61 43.50 47.09 49.82 52.09 57.37 56.04 55.75 57.88 60.34 58.14 57.03 57.43 58.70 61.04 62.62 60.57 60.43 61.80 61.93 62.99
57.12 56.40 56.04 55.69 55.28 54.92 52.49 51.34 55.35 55.30 50.42 58.47 59.26 54.67 56.51 53.88 53.02 54.89 55.66 51.93 50.47 45.68 49.42 45.75 44.21 49.42 51.76 52.77 52.51 57.13 56.02 55.25 58.20 59.86 58.05 56.83 56.58 59.85 60.99 60.50 62.32 60.60 61.68 62.09 63.24
56.36 55.81 55.47 54.67 54.51 51.82 52.93 55.41 59.93 59.11 50.35 54.93 57.04 53.40 53.47 52.99 52.56 52.46 52.63 51.03 49.45 46.56 46.74 44.03 47.48 51.81 50.04 48.92 50.95 55.84 55.31 54.97 54.82 57.92 57.89 56.05 53.98 56.28 59.58 60.54 61.68 61.92 63.89 62.54 63.67
55.78 54.90 54.41 53.33 51.62 57.02 56.95 59.60 59.69 59.00 46.29 50.89 50.47 53.58 54.76 54.02 50.88 56.43 53.48 50.44 48.60 45.37 47.22 45.93 49.87 49.75 47.93 47.40 48.78 51.70 58.73 58.04 56.30 53.07 48.74 56.06 47.35 54.25 57.12 58.02 59.22 60.08 63.34 63.70 63.59
55.19 54.68 53.69 53.33 50.44 53.64 58.41 60.20 58.80 56.17 37.26 51.89 50.99 56.71 54.60 50.91 52.39 53.22 56.60 52.38 48.35 48.45 45.57 44.11 46.65 46.54 46.98 48.07 50.29 55.31 56.63 58.10 56.78 53.16 52.31 52.27 50.14 53.34 57.07 55.47 57.61 59.12 62.68 63.30 64.34
55.12 54.04 53.55 53.95 52.35 55.36 58.86 59.34 57.48 44.95 39.73 48.74 52.87 51.19 50.36 51.87 52.76 54.30 52.60 52.81 53.18 50.32 49.66 47.54 51.03 48.10 48.44 51.41 54.85 60.70 57.35 56.37 55.33 51.79 45.80 50.70 50.45 51.33 52.64 56.00 58.33 59.06 61.24 63.65 64.11
54.42 53.35 52.41 55.91 56.66 60.00 60.26 56.27 44.83 41.58 51.58 47.35 47.42 50.60 49.66 49.47 50.79 51.45 49.81 46.30 44.29 39.88 41.73 46.58 46.65 49.11 51.36 47.85 53.55 58.55 51.82 43.61 41.57 44.27 42.53 50.95 48.99 51.70 57.92 59.38 60.05 58.64 60.19 63.60 65.47
52.65 51.93 52.89 55.56 58.47 59.50 57.46 50.26 42.07 47.17 46.08 49.49 48.95 49.44 47.78 51.11 50.09 49.86 47.77 44.93 48.48 46.86 43.56 39.90 38.81 46.15 52.26 48.55 46.52 49.94 51.98 45.35 39.42 41.93 46.57 52.41 48.45 51.72 60.79 63.18 62.66 61.02 61.41 64.04 64.60
51.59 55.84 56.09 59.38 58.01 58.30 52.93 44.57 43.65 45.99 48.03 46.94 47.80 48.04 48.24 50.77 50.29 50.32 47.03 45.46 47.87 47.82 41.59 42.95 43.25 49.29 52.48 52.70 50.70 47.42 47.48 53.74 47.02 49.94 45.46 49.67 53.46 59.35 62.32 61.87 62.30 61.47 61.68 63.17 64.38
53.36 57.49 58.59 63.99 63.01 58.53 50.62 46.14 47.49 49.55 48.84 48.08 45.18 48.36 45.27 48.59 48.16 47.84 48.83 51.56 50.80 52.82 51.81 46.40 41.33 49.52 51.66 52.60 52.10 48.79 51.35 43.91 43.41 42.13 41.76 47.50 49.99 51.35 57.23 57.45 59.09 59.75 61.00 62.75 63.77
56.27 54.56 60.68 60.72 60.52 54.24 46.81 47.85 48.13 51.08 50.81 48.49 46.89 46.11 47.05 47.93 48.73 47.05 48.04 51.73 53.24 51.48 51.71 48.32 44.72 45.60 50.21 46.46 46.16 46.68 44.79 45.14 44.47 45.30 41.95 41.81 46.92 58.48 57.62 59.77 58.48 59.98 61.53 62.00 63.79
58.48 51.42 60.84 57.76 50.32 52.19 49.09 49.34 48.82 49.68 52.44 50.74 50.56 49.25 47.67 48.57 48.14 46.84 47.81 50.65 54.42 52.12 47.95 49.88 44.67 40.79 44.59 51.98 51.86 48.87 46.01 45.64 40.50 40.35 44.55 46.11 46.77 60.99 59.91 57.45 60.40 60.34 61.59 62.90 65.59
54.44 55.21 62.29 56.49 46.86 49.50 51.14 50.39 50.55 48.74 48.21 48.92 48.61 50.64 49.73 47.58 45.89 49.77 51.41 54.42 54.03 51.71 47.74 48.64 43.93 38.91 41.68 46.38 49.51 45.79 47.17 43.57 43.99 42.32 39.68 43.14 46.88 58.26 60.58 58.16 60.19 59.68 61.37 63.16 65.93
55.03 51.65 54.40 54.38 53.20 49.46 49.82 50.61 49.02 51.55 49.90 49.98 49.30 50.17 48.84 47.76 50.95 48.59 49.96 53.05 53.78 52.67 60.76 53.74 43.74 41.48 40.66 43.65 48.64 46.46 49.41 47.34 42.89 38.00 39.33 42.85 48.67 53.84 55.95 57.13 59.03 60.29 62.56 63.82 65.29
56.38 52.73 55.51 50.57 51.36 50.73 49.67 49.81 48.56 48.25 50.09 51.48 50.68 50.70 48.03 45.03 47.47 47.78 50.57 50.84 53.10 56.99 54.28 49.17 41.82 44.97 49.02 49.60 50.24 48.73 49.47 50.41 44.01 44.15 40.58 49.11 52.35 55.48 58.28 56.78 56.51 57.43 59.14 63.68 63.66
53.70 53.71 57.00 54.14 53.16 52.39 48.18 48.90 49.56 48.88 49.02 47.34 47.71 48.48 49.64 46.53 47.85 45.15 46.68 47.95 46.91 50.40 49.85 50.36 44.06 47.88 46.03 50.59 51.13 49.34 52.33 52.54 52.65 54.98 53.39 54.40 52.18 56.88 59.27 58.35 55.81 58.20 59.10 60.54 64.28
61.12 61.38 57.94 52.47 51.60 49.54 49.78 50.57 49.85 50.68 51.72 51.46 49.50 47.46 47.22 51.40 52.35 49.95 50.75 49.99 49.35 48.83 47.11 46.79 46.97 44.50 40.56 49.06 48.54 45.39 48.21 51.14 51.94 56.52 55.70 52.26 51.54 55.65 54.60 54.61 53.63 56.97 57.43 62.80 64.24

GFSSW_sfc_wetblb_129.txt.gz
Wetbulb
57.68 57.32 57.50 57.71 57.64 57.30 57.07 57.06 57.38 57.30 57.53 57.74 57.92 58.23 58.27 58.61 58.27 54.99 48.32 54.82 56.54 67.04 67.56 53.80 60.53 57.46 55.46 54.61 61.02 68.27 58.65 54.31 55.30 56.47 57.94 63.21 61.50 65.46 66.66 64.05 65.10 66.18 65.42 66.54 67.64
57.78 57.47 57.66 57.63 57.24 57.10 57.08 57.14 57.03 57.15 57.04 57.27 57.68 57.91 58.26 58.52 53.53 50.79 57.82 63.51 65.31 68.34 56.34 50.81 56.49 55.25 51.99 53.62 56.11 60.97 56.63 56.99 60.63 61.00 59.88 63.10 63.23 62.21 63.01 62.78 62.93 64.06 66.91 67.72 67.32
57.66 57.83 57.34 57.30 57.38 57.33 57.16 57.18 57.04 57.31 57.26 57.03 57.33 57.80 58.11 57.13 48.83 51.05 66.98 66.24 68.71 69.03 52.38 50.61 53.58 55.58 52.39 54.10 55.66 62.75 59.19 61.01 61.60 61.86 64.08 62.91 62.59 63.48 61.16 60.53 62.62 62.41 64.39 65.79 66.05
57.79 57.59 57.47 57.48 57.29 57.14 57.10 57.04 57.19 57.45 57.11 56.98 57.22 57.44 57.90 52.13 43.56 56.10 69.90 67.64 70.61 60.73 50.40 49.50 51.87 52.14 50.79 51.15 55.59 60.30 64.49 62.81 63.94 62.68 62.77 63.00 63.83 61.34 61.86 63.46 65.78 66.06 66.30 66.03 65.48
58.01 57.95 57.15 57.68 57.39 57.18 57.35 57.46 57.51 57.13 56.49 56.72 57.87 57.77 52.91 47.22 49.61 58.63 71.16 68.25 63.86 51.72 48.45 47.32 52.12 52.42 50.26 52.59 61.79 60.74 63.13 63.35 64.90 64.58 63.87 64.95 62.62 62.28 63.12 65.63 67.22 67.10 66.75 65.79 65.85
58.02 57.91 57.65 57.38 57.15 57.39 57.41 56.99 57.07 56.96 56.31 56.75 58.02 57.84 49.17 42.15 55.34 62.84 61.56 59.64 55.23 49.18 46.73 46.97 51.58 55.14 52.45 55.30 56.24 64.28 63.52 62.12 63.05 63.24 64.42 63.00 62.59 63.69 62.33 66.28 65.92 66.00 65.67 66.24 65.95
57.73 57.87 57.57 57.13 56.92 57.05 56.89 56.48 56.72 56.61 56.44 56.49 57.94 56.16 49.00 45.72 59.70 61.05 58.37 54.03 54.19 49.49 47.25 47.33 49.65 49.88 52.72 57.94 63.76 62.41 59.66 61.36 60.91 61.82 62.52 63.78 60.32 60.40 64.94 65.52 64.57 64.79 65.42 66.08 66.83
57.46 57.55 57.20 56.94 56.69 56.66 56.24 55.96 56.05 57.08 56.79 57.61 58.14 52.35 43.58 55.14 56.81 56.62 57.96 55.91 54.62 50.01 46.85 48.48 50.44 50.36 50.87 62.80 62.81 59.53 58.76 53.92 59.02 61.91 62.34 61.00 53.62 61.83 65.11 64.32 63.04 64.04 64.57 65.33 66.48
57.15 57.17 56.91 56.38 56.26 55.95 55.61 55.53 56.36 57.58 58.66 57.98 51.31 48.14 48.79 60.38 54.91 56.32 56.60 54.52 51.29 47.10 46.56 52.04 49.68 46.37 50.90 55.42 52.17 54.21 51.37 54.34 56.41 61.46 60.62 59.81 55.37 61.78 64.78 63.64 62.27 63.33 63.64 64.07 65.37
57.24 56.86 56.30 55.51 55.65 55.14 54.26 55.38 56.53 56.21 57.61 58.04 56.43 47.47 50.86 52.22 54.00 52.61 54.79 54.82 49.17 48.32 48.97 46.73 45.16 44.12 43.62 43.61 41.15 47.22 50.64 54.65 54.64 58.30 59.50 57.19 57.08 60.64 63.01 63.47 61.02 62.51 63.57 63.78 63.97
57.06 56.37 54.72 53.94 53.82 52.98 50.76 49.00 47.98 47.74 52.80 50.08 49.72 51.67 53.81 54.60 54.37 53.14 54.31 52.88 49.51 48.31 43.46 46.59 43.24 40.72 43.47 45.43 47.99 52.36 52.28 53.69 57.32 59.65 57.37 56.45 56.92 58.13 61.58 61.87 60.19 58.87 61.65 62.74 63.94
56.65 55.95 54.96 53.98 53.66 53.08 49.33 45.94 48.41 50.54 46.69 53.44 55.47 54.91 56.65 53.73 49.87 51.85 54.52 50.09 47.16 43.32 45.06 43.60 40.67 46.75 48.77 48.51 48.35 46.38 49.77 53.65 56.40 58.65 57.00 55.61 56.43 59.63 60.47 60.73 60.07 57.76 61.75 62.66 63.86
56.41 56.11 55.02 54.37 53.77 50.53 48.35 50.41 52.53 51.41 44.79 50.00 53.47 54.05 53.89 52.30 49.24 49.46 50.85 48.19 46.13 42.77 42.64 41.14 45.52 49.98 48.97 47.60 51.00 48.23 51.89 53.86 53.57 54.73 57.23 56.35 53.47 56.50 59.83 60.99 60.71 60.64 62.54 63.83 64.16
56.11 55.99 55.21 53.54 50.50 49.72 49.56 52.55 53.60 51.98 40.98 46.41 48.33 53.04 50.60 50.53 47.47 54.02 50.60 47.91 45.96 43.93 43.41 42.26 47.03 47.10 45.10 45.87 48.72 44.78 57.80 54.49 52.48 51.48 48.76 55.71 44.41 52.16 57.02 57.67 58.69 59.24 59.46 61.90 63.78
55.73 55.39 53.60 52.86 47.49 48.28 52.03 52.44 52.71 50.49 33.46 49.55 47.70 53.77 48.91 47.25 48.10 49.21 51.35 48.31 43.35 44.23 42.65 42.72 43.43 44.38 43.50 45.08 53.52 52.32 57.96 55.04 54.91 53.22 52.10 52.18 47.57 49.47 56.17 54.99 56.46 57.64 59.50 60.59 64.09
55.00 54.52 53.23 50.17 47.54 51.24 53.54 52.30 50.99 42.13 35.65 45.84 48.99 47.04 46.21 46.43 48.33 50.25 48.10 49.00 49.25 45.86 44.89 45.11 48.07 44.55 48.64 55.32 56.88 58.58 54.68 55.26 53.88 51.89 45.42 49.41 49.43 50.02 52.65 55.03 57.25 57.35 59.36 61.11 63.54
53.65 52.73 51.24 52.62 49.00 52.04 52.31 50.15 41.37 34.78 45.53 42.89 42.95 45.78 44.87 43.19 46.33 48.03 45.71 42.17 41.25 37.97 38.23 43.62 44.59 49.66 58.12 54.18 56.20 50.54 44.65 42.53 41.23 43.65 42.86 50.86 49.54 50.07 55.83 57.71 59.08 58.50 58.75 61.12 62.84
51.80 50.96 50.34 51.95 50.71 52.05 50.77 45.88 36.05 44.37 40.37 43.72 43.53 46.02 43.57 45.16 43.46 45.54 43.77 41.57 43.30 41.42 37.42 36.40 37.88 42.79 49.44 53.95 51.21 48.39 44.77 42.92 38.27 39.94 44.49 51.15 46.50 50.26 57.64 59.97 60.67 61.65 60.89 62.62 61.98
50.80 47.32 48.22 51.07 51.94 50.17 47.86 39.45 39.21 39.30 43.11 42.94 44.27 42.73 43.73 47.76 46.68 45.37 42.45 43.71 44.43 42.20 38.45 36.22 38.97 46.95 48.57 53.19 53.61 49.81 45.73 50.82 46.38 47.03 45.16 47.85 51.01 55.39 58.08 59.05 60.32 60.14 60.58 61.69 62.27
48.63 48.92 49.14 53.71 53.71 50.36 44.41 40.66 42.94 46.07 43.79 44.55 40.02 42.66 39.56 44.39 44.85 43.05 43.54 47.22 47.26 48.44 44.87 41.66 37.38 43.83 47.78 49.75 53.72 48.90 51.06 44.40 43.56 39.43 37.69 45.45 45.39 45.91 54.37 58.10 58.93 59.14 58.91 60.83 62.69
49.86 46.98 51.01 53.71 52.82 47.60 40.60 40.85 46.61 46.21 47.07 44.04 41.86 40.68 40.23 42.79 43.33 42.31 43.33 47.68 48.86 48.29 46.54 42.50 39.85 42.75 44.55 42.40 42.31 42.57 40.70 42.15 43.29 43.65 40.71 41.30 44.58 53.42 54.30 58.87 58.44 58.67 59.48 60.64 62.44
47.09 42.85 52.55 52.96 46.49 39.70 40.44 45.04 48.58 45.40 45.51 44.92 45.56 44.19 42.27 45.42 42.68 41.97 42.58 46.06 51.80 47.59 43.71 44.43 38.65 36.75 41.58 46.41 46.76 42.62 42.38 41.95 38.73 37.81 42.23 44.49 43.42 57.98 58.04 59.32 59.26 59.33 58.79 60.45 63.30
43.28 44.88 52.36 50.41 41.05 38.75 41.53 46.06 48.39 44.22 42.68 43.56 43.39 44.97 45.96 43.96 40.98 45.23 47.24 51.81 50.79 50.34 44.97 45.58 38.13 34.27 38.52 42.54 45.96 44.19 47.00 43.88 37.74 36.22 35.96 36.91 40.36 56.57 57.10 56.58 58.63 57.72 59.57 60.78 62.11
45.50 42.55 47.01 46.27 42.98 41.61 40.48 43.42 43.70 46.95 45.17 45.24 43.75 45.47 43.27 44.08 44.64 43.50 45.40 50.43 51.76 51.75 58.44 49.75 37.11 36.88 34.89 40.20 42.55 44.17 49.69 50.57 39.73 35.20 34.84 38.59 42.41 54.19 55.03 55.73 57.15 58.49 59.55 60.61 61.73
45.77 43.37 45.63 44.06 46.55 45.60 42.06 43.01 44.82 42.85 45.40 45.16 42.73 45.02 43.22 40.00 42.96 41.11 43.92 46.17 49.62 52.80 48.36 44.96 39.72 38.70 41.13 46.31 49.59 48.38 48.82 50.71 49.57 46.76 36.43 40.69 46.01 53.60 54.64 54.84 56.05 57.52 59.47 61.25 62.00
42.93 47.68 49.59 47.12 46.70 44.50 41.53 41.77 43.48 44.80 43.99 42.07 42.20 43.60 45.71 42.10 43.44 40.35 41.78 42.39 42.51 46.40 43.27 44.15 40.44 41.25 42.13 48.50 49.16 45.80 48.11 50.01 52.02 51.30 50.94 50.87 50.93 57.06 56.75 55.83 56.64 58.45 59.73 60.83 62.57
46.87 50.13 50.21 46.16 46.08 45.05 45.52 48.81 46.03 46.55 46.73 46.44 45.42 42.88 43.70 44.00 47.27 44.37 44.54 43.41 42.92 43.34 42.04 42.07 40.33 39.31 36.57 44.12 45.69 41.81 45.33 46.88 52.01 51.62 50.85 46.53 49.80 54.23 54.86 56.75 56.93 57.94 59.84 60.78 62.83

GFSSW_sfc_wetblb_132.txt.gz
Wetbulb
57.73 57.54 57.26 57.11 57.12 56.79 56.91 57.00 56.85 57.10 57.48 57.42 57.69 57.62 58.09 58.50 57.91 54.30 46.33 53.96 55.76 67.23 66.52 56.96 59.46 56.84 54.95 53.80 62.39 67.17 58.00 54.34 55.47 56.38 58.25 63.14 60.92 64.71 66.54 63.35 64.87 65.84 63.92 65.94 68.04
57.34 57.29 57.16 57.19 57.10 57.10 57.10 57.05 57.13 57.14 57.46 57.41 57.34 57.58 57.88 58.28 52.04 49.49 56.48 62.62 64.75 67.88 53.27 51.68 55.25 54.00 51.30 52.66 55.04 60.12 57.05 57.06 60.66 60.61 59.86 61.89 63.01 62.75 62.51 62.71 62.51 63.54 65.92 67.12 67.61
57.80 57.17 57.14 57.09 56.99 57.09 56.87 56.81 56.81 56.94 57.02 56.84 57.34 57.41 57.79 56.63 46.90 48.83 66.60 65.40 67.93 66.30 52.11 50.66 54.05 55.03 51.69 53.01 53.95 59.48 57.75 61.48 61.48 62.63 63.17 62.26 62.63 64.55 61.66 59.92 61.99 61.92 63.42 65.34 65.85
58.06 57.44 56.87 56.84 56.96 57.30 57.04 56.85 56.79 56.66 56.52 56.64 57.59 57.97 58.15 50.61 42.93 54.57 69.60 67.50 68.31 62.70 49.53 48.41 51.44 51.48 50.39 50.74 54.39 58.51 63.27 61.69 63.15 63.53 63.08 62.24 63.94 61.50 63.17 63.04 65.13 65.11 65.38 65.39 65.08
58.16 57.93 57.66 56.89 56.39 56.79 57.01 57.00 56.64 56.60 56.22 56.38 57.57 58.25 51.57 44.28 47.97 58.27 69.84 67.58 63.01 51.76 48.32 47.73 51.63 51.56 49.77 50.73 60.35 59.02 62.41 62.65 64.59 63.25 63.42 64.59 62.63 61.99 62.30 65.09 66.45 66.10 65.54 64.70 65.31
57.77 57.74 57.78 57.32 56.68 56.80 56.82 56.97 56.24 56.55 56.17 56.42 57.59 58.28 47.40 41.46 54.12 62.46 63.88 60.83 54.79 48.31 45.39 47.38 51.69 52.63 51.37 58.23 56.03 62.97 62.70 61.78 62.97 62.84 63.20 61.15 62.33 62.24 62.78 65.70 65.06 65.11 64.30 64.62 65.14
57.42 57.42 57.45 56.55 56.94 56.71 56.41 56.40 56.15 55.89 56.12 56.51 57.65 56.19 46.31 45.22 59.65 58.73 57.02 55.10 52.12 47.61 45.43 46.08 48.47 49.70 51.22 57.81 62.70 61.92 58.88 60.77 60.55 61.88 61.86 63.84 60.39 59.79 64.29 65.07 64.19 64.19 64.46 65.30 65.35
57.17 57.23 57.05 56.73 56.40 55.93 55.34 55.48 55.56 56.01 56.61 57.74 58.11 51.42 45.05 52.64 55.39 55.98 56.37 55.26 53.49 48.19 46.62 47.13 49.76 48.34 49.99 61.45 61.63 58.80 57.41 52.82 58.97 61.43 61.85 61.27 55.52 61.53 64.95 63.92 62.96 63.92 65.01 65.27 65.49
56.96 57.04 55.99 54.93 54.58 54.50 53.91 54.46 56.12 57.15 57.76 58.09 50.21 47.09 47.35 59.34 54.01 55.20 56.18 53.29 50.17 46.69 45.50 51.46 48.89 45.50 54.17 54.71 50.60 52.98 49.63 53.09 55.78 61.43 60.09 59.43 54.95 61.11 64.28 63.83 62.40 63.23 63.90 65.05 64.91
57.05 56.59 55.30 54.77 53.83 53.25 53.57 55.92 57.61 57.13 57.46 57.92 55.99 46.39 49.72 50.87 52.81 52.80 54.25 51.23 48.07 46.42 47.08 45.24 45.35 43.09 42.44 46.27 38.44 45.40 49.44 54.18 53.92 58.50 59.36 57.29 55.58 60.72 62.81 63.36 62.47 63.01 63.80 63.46 64.08
56.75 56.56 56.26 55.27 54.34 53.22 50.69 48.52 46.75 47.21 50.74 48.16 48.44 50.36 52.71 54.90 53.31 51.18 53.46 51.66 48.46 46.53 41.61 44.62 42.50 39.61 42.10 44.66 48.09 51.45 51.53 52.94 56.62 59.01 57.36 56.07 56.98 59.25 61.41 62.28 61.41 61.83 61.83 62.19 63.58
56.33 56.26 55.96 55.56 54.75 53.69 48.88 46.89 47.62 50.21 45.26 51.48 53.58 53.27 55.30 53.42 50.03 50.72 53.82 48.67 46.00 42.17 43.90 42.50 39.65 45.51 47.23 46.87 46.17 45.28 50.67 52.52 55.76 57.87 56.79 56.43 55.83 59.24 60.51 61.01 60.65 61.46 61.45 62.01 62.75
55.96 55.78 55.54 53.87 53.66 50.52 48.06 49.40 51.59 50.35 43.80 49.11 52.24 52.53 51.49 53.10 48.19 47.79 50.72 47.64 44.86 41.86 41.51 40.64 43.98 48.83 47.83 46.36 49.29 46.39 50.12 52.81 52.11 55.39 55.55 55.54 51.70 56.76 60.15 61.27 61.32 59.76 62.75 63.13 62.94
55.66 55.56 54.18 52.70 48.76 49.17 48.82 51.83 51.77 50.93 40.52 45.48 46.75 51.02 49.73 48.98 46.24 52.71 49.25 47.04 44.63 42.26 42.44 41.01 45.41 45.86 44.43 44.40 49.79 43.75 55.55 54.42 53.62 50.19 46.24 55.52 45.22 51.42 57.19 58.14 59.15 59.38 59.96 61.99 63.13
55.56 55.05 53.07 52.31 46.54 48.24 50.06 51.17 50.18 49.08 32.35 48.11 46.98 51.90 47.72 46.36 46.44 48.35 50.00 47.92 42.17 43.12 42.64 41.95 42.74 42.80 42.00 44.05 48.47 46.78 56.28 53.96 54.38 52.22 50.80 50.96 48.15 49.23 56.59 56.00 57.62 57.85 59.12 61.61 63.53
55.09 54.08 52.84 49.59 46.96 50.54 52.08 50.10 50.04 39.37 33.56 44.12 47.40 45.51 45.06 45.67 47.08 48.18 47.35 48.54 47.65 43.91 42.59 43.37 46.55 44.28 45.73 53.92 51.92 57.95 54.81 53.01 51.78 51.07 44.54 49.09 48.05 46.71 52.56 55.56 58.00 58.16 59.24 60.73 62.86
53.60 52.29 51.23 51.65 48.03 50.84 50.47 49.61 38.74 33.25 43.01 42.02 40.76 43.30 43.00 42.68 45.32 46.49 44.07 41.18 40.05 37.81 36.13 41.89 42.94 53.15 56.33 52.76 55.03 50.80 44.87 39.33 38.15 41.67 42.64 49.07 48.65 50.58 54.82 58.02 59.75 59.15 58.84 60.29 62.81
51.68 50.56 49.94 51.41 49.89 50.48 49.97 42.82 33.31 41.70 39.66 42.59 43.04 44.86 42.67 43.63 42.58 44.05 42.32 40.97 41.84 40.14 36.27 35.12 35.54 51.31 53.12 52.03 50.30 47.18 42.22 38.21 36.02 38.87 42.41 51.14 45.74 49.37 56.93 59.45 60.49 62.03 60.57 61.24 62.11
50.71 46.34 47.40 49.55 51.27 49.57 47.18 37.78 36.91 38.69 42.48 42.01 42.23 42.03 42.55 46.31 45.26 43.93 41.91 42.17 43.07 41.11 38.51 36.42 38.31 45.55 47.98 53.94 53.55 48.23 44.19 47.71 45.60 47.07 44.41 47.34 50.17 54.35 56.88 57.01 58.93 59.75 60.24 60.16 61.26
47.33 47.61 47.58 52.22 52.12 48.99 43.57 39.61 41.57 46.16 43.05 43.05 38.28 41.50 38.86 43.38 43.53 41.94 42.72 46.20 45.62 46.83 43.21 41.04 37.81 43.11 46.52 50.83 51.99 48.93 50.13 43.99 44.57 40.21 39.11 44.54 45.72 47.08 52.90 55.21 57.28 58.27 59.64 60.34 61.56
48.47 45.78 49.67 51.73 50.60 46.91 39.87 39.49 44.94 48.60 45.22 42.60 40.38 39.29 39.08 41.67 42.20 40.98 41.78 46.43 48.07 46.94 45.52 41.19 39.20 42.09 42.89 40.94 40.83 41.95 41.23 41.25 44.96 44.26 40.33 40.55 43.83 53.55 53.58 57.67 59.01 60.06 60.92 60.47 61.11
42.88 43.03 50.00 50.08 45.98 37.82 40.01 43.36 47.28 46.72 44.32 43.98 43.99 42.43 40.70 43.95 41.27 40.50 40.86 44.72 50.62 46.59 42.42 42.07 38.02 35.95 40.32 44.89 45.41 41.92 39.93 39.11 38.35 38.51 42.67 44.07 41.76 56.27 57.29 59.32 60.70 59.68 59.34 60.23 62.17
41.60 42.70 50.66 49.53 39.98 38.91 39.90 43.61 47.07 43.65 41.66 42.64 42.34 43.80 44.64 43.16 40.62 43.87 46.03 50.24 50.36 48.99 44.51 43.88 36.58 33.95 37.78 41.88 44.48 45.31 48.48 41.50 37.29 39.26 39.74 38.55 40.15 56.88 57.22 57.36 58.72 58.62 59.96 60.78 61.94
43.46 41.54 45.43 45.06 41.70 41.43 40.41 43.13 41.61 45.26 43.81 44.10 43.54 44.01 43.55 43.24 43.41 42.19 42.61 48.87 50.08 49.98 54.72 48.22 35.58 36.29 34.32 37.12 42.01 44.31 48.10 48.76 38.39 36.64 36.95 39.16 47.73 53.97 55.34 56.20 58.17 58.99 60.09 61.73 61.28
43.47 41.10 44.57 42.57 44.09 43.71 42.14 41.74 42.90 41.06 43.82 44.12 42.16 44.44 43.70 39.54 40.83 39.72 42.26 44.61 48.23 50.72 46.62 43.70 38.41 38.17 39.91 42.06 47.64 47.32 47.67 50.42 47.14 46.82 40.12 43.74 48.69 53.89 54.85 55.38 56.67 58.16 60.42 61.97 61.87
42.85 47.69 48.22 45.65 45.47 43.98 41.26 42.39 42.04 42.63 43.24 41.22 41.38 43.99 44.68 41.67 43.05 40.71 41.42 40.83 42.03 44.18 41.94 43.08 39.56 38.91 41.19 46.77 47.82 45.89 47.53 50.27 50.72 50.44 51.24 51.18 50.74 56.46 55.80 57.00 57.73 59.08 59.93 60.24 62.04
43.52 47.30 48.83 45.34 45.10 44.02 45.16 47.08 48.27 45.00 44.62 45.87 44.60 44.92 42.97 44.86 46.56 44.00 43.44 42.21 40.95 40.64 40.65 41.02 38.67 37.84 35.15 42.82 44.04 39.61 44.72 47.01 50.92 51.29 50.62 46.80 50.66 55.22 55.38 56.61 57.84 58.17 58.47 60.71 63.56

GFSSW_sfc_wetblb_135.txt.gz
Wetbulb
57.13 57.31 57.02 56.98 57.11 57.22 57.49 57.61 57.44 57.46 57.61 57.75 57.79 57.78 58.01 58.22 58.08 56.03 50.20 58.20 60.23 66.48 67.85 64.12 61.81 59.83 58.32 59.00 64.88 67.50 59.18 56.45 56.48 56.17 57.98 62.77 62.09 65.58 67.21 63.79 65.26 66.54 65.24 67.31 70.13
57.93 57.10 57.08 56.86 57.10 57.23 57.11 57.19 57.14 57.03 56.91 56.99 57.13 57.67 57.84 58.13 54.42 52.29 60.24 61.51 64.47 68.10 55.18 57.59 57.61 56.75 58.33 57.33 59.65 63.55 60.45 57.93 61.47 60.53 59.82 62.36 63.21 63.91 62.87 63.55 63.50 64.63 67.68 69.16 69.98
58.22 57.79 57.02 56.96 56.97 57.82 57.11 57.37 57.28 56.94 56.85 56.67 57.04 58.14 58.13 58.10 52.42 52.18 67.69 64.76 67.06 66.30 55.97 59.06 58.80 58.32 57.47 58.08 58.39 60.37 59.66 61.96 62.44 61.92 63.07 62.32 62.85 64.87 62.38 61.03 63.63 62.36 65.27 67.74 68.51
58.41 57.64 57.01 57.31 56.80 56.68 56.81 56.94 56.76 56.87 56.87 56.42 57.50 58.36 58.61 55.54 48.89 57.17 70.90 67.46 68.53 62.62 53.39 54.21 58.07 57.00 56.93 56.55 58.55 58.51 63.79 63.44 63.52 63.97 62.97 61.67 64.63 62.66 62.87 63.48 65.80 65.84 66.76 67.32 67.23
57.99 57.84 56.98 56.63 57.25 56.72 57.22 56.53 56.67 56.35 56.53 56.63 57.19 58.57 54.98 50.14 51.01 60.11 68.66 67.98 62.36 55.18 52.02 54.64 57.39 57.29 55.18 55.60 60.41 58.59 63.31 64.43 64.65 63.64 63.89 63.32 62.62 62.34 62.96 66.53 67.27 67.38 67.24 66.87 67.82
57.68 57.59 57.38 56.69 56.73 57.27 57.16 56.16 56.16 56.05 56.35 57.06 57.53 58.77 52.78 50.08 59.34 66.36 65.24 60.82 56.74 54.24 51.19 54.78 57.93 56.64 55.87 62.11 60.75 64.44 63.59 63.65 63.69 63.62 63.76 61.31 61.96 61.93 63.73 67.07 66.33 66.52 66.65 67.34 67.72
57.35 57.51 57.24 56.02 56.20 56.27 55.98 55.51 55.47 55.62 55.99 56.74 57.71 57.25 50.09 50.50 61.81 64.67 60.93 58.30 56.49 53.74 51.66 50.59 54.10 56.89 55.77 62.46 65.48 64.29 60.86 62.52 62.78 62.96 62.47 62.48 58.39 59.35 64.62 66.55 65.32 65.74 66.76 67.32 67.78
57.34 57.28 55.98 55.43 54.81 54.79 54.51 54.22 54.51 55.56 56.48 57.23 58.22 55.44 52.73 55.23 58.25 58.82 60.68 58.43 55.81 54.74 53.67 52.60 53.46 53.80 60.29 65.27 63.45 60.82 60.67 56.24 60.12 62.33 62.37 60.67 52.88 60.32 64.31 65.45 64.71 65.60 66.30 66.73 67.58
56.93 56.89 56.29 55.89 54.99 54.16 53.77 54.91 56.51 56.98 57.44 58.27 56.28 53.93 53.39 61.34 57.67 59.29 59.76 56.47 55.10 54.05 53.46 52.34 52.36 52.77 62.45 59.98 57.28 57.66 54.29 55.56 57.22 62.11 60.25 59.40 56.12 61.60 63.87 64.66 64.18 65.45 66.14 66.75 67.43
56.86 56.83 56.35 56.01 55.88 54.22 53.77 56.39 58.17 58.47 58.81 58.77 57.26 53.01 55.56 54.91 56.98 57.26 58.60 54.96 51.46 51.13 50.63 50.42 51.77 51.43 56.18 56.14 48.76 53.09 53.74 55.55 55.83 58.45 59.60 58.41 56.21 60.67 62.79 63.60 63.86 65.34 65.98 66.90 67.23
56.70 56.35 56.14 55.94 54.83 53.71 53.17 55.11 54.70 54.05 56.14 53.26 53.62 53.45 55.34 58.77 57.12 54.99 58.09 54.79 52.81 51.87 48.69 50.58 50.25 48.83 49.88 54.95 55.29 55.71 56.15 55.07 56.49 56.89 55.86 54.18 56.73 58.80 61.52 62.40 62.53 64.22 65.51 66.22 67.23
56.39 56.10 55.84 54.36 53.57 53.57 52.53 54.38 54.70 54.83 51.37 53.78 54.58 55.39 57.29 58.48 52.82 53.64 57.25 53.32 51.82 48.50 50.23 50.31 48.86 50.90 51.38 51.03 50.98 55.17 54.00 54.77 56.42 57.38 56.23 54.56 54.45 59.62 61.14 61.72 63.18 64.48 65.07 66.11 66.97
56.19 55.82 54.69 53.57 53.54 53.81 53.17 55.05 55.98 56.31 51.51 52.86 55.30 55.67 56.19 57.36 52.66 52.74 55.50 52.66 50.93 48.10 48.57 49.25 49.87 51.54 51.10 50.30 49.72 50.46 51.33 54.85 54.02 56.27 57.73 54.04 54.00 57.55 60.54 61.79 62.59 64.36 66.10 66.67 66.73
56.06 55.62 53.63 52.85 52.27 53.26 54.08 56.16 56.77 56.04 48.89 50.08 52.13 54.99 54.42 53.79 51.10 55.01 55.17 52.81 49.69 47.79 47.76 49.24 49.44 49.75 49.31 49.39 52.61 49.21 54.87 57.12 54.25 52.77 48.55 55.35 45.67 53.88 58.28 59.17 60.75 62.01 63.98 65.83 66.65
55.64 54.65 52.61 51.84 52.81 54.07 54.21 56.54 55.48 54.07 39.16 49.90 51.94 56.03 53.36 52.17 52.61 52.49 53.93 52.74 48.09 48.01 48.70 47.14 47.36 47.27 46.88 48.03 52.55 52.49 58.65 56.56 55.18 54.32 52.00 51.51 49.76 53.63 58.42 57.14 58.38 61.94 62.43 65.03 67.01
54.59 53.57 52.52 51.82 52.23 55.54 56.12 55.49 54.99 46.72 37.97 46.44 51.13 50.27 50.66 51.05 51.28 51.62 52.00 53.59 51.72 48.73 49.00 48.42 50.41 49.37 50.21 56.61 52.30 59.37 56.31 54.98 55.10 54.25 47.54 50.71 50.91 51.34 54.92 57.93 60.59 60.96 62.88 64.10 66.26
52.95 52.08 51.01 53.35 54.26 55.66 55.39 56.46 47.14 40.62 47.02 45.73 45.66 47.77 49.28 48.57 49.66 50.29 49.05 48.34 47.37 45.02 45.48 47.35 47.71 56.05 59.02 55.36 58.25 57.32 53.29 47.31 45.91 46.39 44.66 51.86 49.29 52.60 58.48 60.56 62.01 61.36 63.78 64.46 65.83
51.52 50.62 51.88 53.78 55.05 55.32 56.72 51.48 41.12 44.63 45.37 47.31 47.83 49.46 47.53 49.20 48.45 48.78 48.10 47.37 48.35 47.20 46.05 44.46 42.38 54.11 58.77 55.73 53.41 54.03 51.33 46.71 40.24 41.44 44.66 52.19 48.06 52.06 59.59 61.97 62.56 64.13 64.18 63.77 65.31
50.60 52.42 53.72 55.46 54.35 54.76 55.33 45.40 44.26 45.42 46.36 46.25 47.61 47.28 47.71 49.93 49.48 49.06 48.75 49.02 49.47 49.46 46.78 46.32 45.30 50.47 55.01 58.10 57.73 53.32 50.20 53.61 48.96 50.35 47.18 49.79 53.03 56.90 59.03 58.51 60.25 62.90 63.04 63.88 64.95
53.65 54.98 54.16 55.88 56.17 55.85 52.21 43.87 48.36 50.44 48.14 48.17 44.90 46.83 46.23 48.33 48.69 49.26 48.87 50.56 49.70 51.06 51.29 48.22 45.39 49.98 50.70 55.58 56.47 55.52 56.89 49.55 51.72 42.49 40.35 47.20 48.53 49.18 55.17 57.51 58.18 60.55 61.44 64.20 65.68
54.31 53.46 54.61 56.63 55.72 54.85 48.87 48.11 49.66 52.30 50.89 48.19 46.73 46.43 46.95 47.90 48.86 48.15 48.29 51.18 52.47 51.00 52.05 50.01 47.80 48.81 49.78 49.47 51.99 51.65 52.09 51.41 51.89 50.53 44.67 44.01 47.60 56.55 57.82 59.53 59.15 59.23 61.61 63.83 65.39
50.62 50.88 55.30 54.83 53.32 47.65 49.07 49.11 47.84 50.49 49.34 49.34 49.51 48.46 47.52 49.01 48.22 47.70 47.50 50.13 53.56 52.46 49.66 49.79 48.67 46.13 47.55 50.20 50.46 49.62 49.98 50.95 47.57 45.41 47.82 48.68 48.07 58.92 59.34 60.41 62.25 62.30 63.20 64.15 65.78
48.76 51.20 56.67 55.11 48.99 48.90 48.01 48.17 49.74 49.98 47.99 47.85 47.76 49.63 50.72 49.75 47.43 49.39 50.33 53.29 53.84 53.40 51.01 51.45 47.21 44.01 45.67 49.82 51.91 52.58 54.23 52.75 47.42 48.26 46.38 43.74 47.27 59.69 60.21 60.56 61.15 61.41 61.67 62.67 65.69
50.63 48.87 53.10 52.84 49.50 50.10 49.16 49.62 47.61 49.24 47.71 48.80 48.99 50.75 51.32 49.86 50.37 49.44 48.33 51.62 52.70 53.86 53.71 54.33 47.47 45.77 43.05 45.53 49.21 49.84 51.83 53.17 48.64 46.04 45.32 46.13 47.90 56.34 58.14 58.97 60.38 60.68 62.68 63.46 64.15
50.20 48.57 50.08 49.68 51.15 51.66 50.12 47.86 46.57 45.74 48.63 49.23 47.91 49.14 50.57 48.39 48.73 47.57 48.79 49.82 51.88 53.42 52.64 52.63 46.43 46.86 48.53 49.05 48.99 51.48 51.09 53.02 52.33 53.42 46.44 47.26 49.64 54.67 57.97 58.26 59.20 61.70 62.54 63.43 63.59
51.20 52.34 53.34 52.44 51.04 50.05 46.08 47.85 46.68 46.72 48.41 47.56 47.66 49.66 50.01 49.49 50.44 47.95 49.08 49.27 48.67 51.74 50.90 50.94 46.85 48.90 47.39 50.76 51.36 49.83 51.17 52.94 53.46 52.96 54.09 53.52 52.74 58.50 58.05 59.46 59.42 60.31 60.44 62.49 64.31
50.07 52.14 53.37 48.53 50.65 49.91 51.08 51.22 50.99 48.79 48.46 49.71 49.51 49.31 49.19 51.03 52.87 50.58 51.26 50.33 50.91 50.41 49.34 49.76 48.69 46.73 43.28 47.94 48.78 46.04 50.47 52.37 53.37 53.84 54.38 51.89 55.09 57.78 57.04 58.04 58.18 58.28 59.72 61.12 64.25

GFSSW_sfc_wetblb_138.txt.gz
Wetbulb
58.05 57.51 57.38 57.40 57.53 57.89 57.91 57.59 57.64 57.43 57.24 57.56 57.55 57.98 58.12 58.48 58.78 59.46 54.61 59.25 61.66 64.82 66.33 63.26 62.40 65.07 66.23 65.62 67.89 68.56 61.67 58.46 56.72 56.46 59.78 64.40 64.12 67.19 67.98 66.43 66.16 67.48 66.75 68.87 71.48
58.58 58.26 57.66 57.49 57.49 57.96 58.09 57.78 57.97 57.90 57.67 57.31 57.19 57.89 58.60 58.76 58.52 54.92 61.60 60.87 63.83 67.10 61.25 60.31 59.12 63.21 65.25 62.77 64.47 66.24 63.04 59.92 63.42 60.99 61.39 63.74 64.82 65.09 64.51 65.02 65.26 65.81 68.61 70.39 71.27
58.78 58.14 57.48 57.40 57.80 57.40 57.25 57.71 57.47 57.14 57.37 57.15 57.51 58.23 58.87 59.71 56.58 57.74 67.77 64.36 65.88 65.84 58.72 60.47 61.14 63.88 61.63 63.49 62.68 63.64 61.85 63.96 64.06 61.86 63.60 64.07 63.97 65.98 63.97 62.57 65.38 65.32 67.36 69.17 69.79
58.54 58.17 57.49 57.22 57.34 57.95 57.53 57.60 57.24 57.13 56.97 57.16 57.45 58.21 59.62 59.73 51.33 59.24 69.64 67.62 67.79 62.84 57.94 59.06 60.56 62.65 61.22 60.92 62.26 61.47 64.95 64.69 64.08 63.90 63.12 62.56 64.91 64.00 63.86 64.87 67.14 68.37 68.85 68.82 68.57
58.16 58.11 57.43 57.27 57.24 57.57 57.79 57.44 56.49 56.65 56.83 57.22 57.90 58.43 59.50 56.23 55.98 65.52 69.08 67.79 62.85 57.63 56.57 57.89 60.31 61.14 60.56 59.96 63.22 60.93 64.04 65.63 65.88 64.89 64.29 64.46 63.49 64.08 64.44 67.20 67.40 67.82 67.84 67.99 68.56
57.76 57.86 57.11 56.35 56.31 56.97 56.81 56.21 56.22 56.31 56.55 57.09 58.14 58.94 57.68 53.82 63.34 66.24 65.24 60.41 57.61 56.79 55.63 59.25 59.26 61.81 59.74 62.32 63.77 65.31 65.13 65.47 65.51 64.48 62.88 61.51 62.15 63.90 65.67 67.22 66.21 66.68 67.66 69.02 69.25
57.51 57.49 56.52 56.21 55.90 55.77 55.65 55.27 55.16 55.68 56.46 57.55 58.46 60.37 55.74 57.69 64.90 63.85 60.80 58.23 57.39 56.46 54.51 57.05 60.81 60.85 59.59 63.82 67.33 66.16 62.60 64.51 63.92 64.52 62.83 62.43 58.10 60.15 66.28 67.27 66.26 66.62 67.81 68.63 69.54
57.14 57.16 57.20 56.90 56.72 55.62 55.16 54.64 55.18 55.90 56.35 57.87 59.26 60.41 55.59 59.60 62.89 61.50 62.30 60.74 58.57 57.88 56.44 57.30 57.86 59.70 62.65 67.63 65.05 62.33 62.75 58.55 61.16 63.09 63.07 61.30 54.69 61.04 65.81 66.20 65.67 66.58 67.34 68.24 69.33
56.91 57.01 56.87 56.65 55.93 55.75 54.77 55.17 57.37 57.05 57.85 59.14 61.29 59.36 55.61 60.76 58.71 61.28 61.94 58.23 57.80 57.99 57.15 54.87 56.50 58.82 64.88 62.40 59.81 60.47 56.98 57.29 58.13 63.09 61.13 58.69 55.59 61.06 65.07 65.02 65.21 66.62 67.27 68.03 68.93
56.99 56.79 56.57 55.99 55.09 54.89 54.72 55.62 58.20 59.40 60.64 61.72 61.06 57.59 58.09 56.34 58.85 60.39 61.76 56.85 53.09 54.01 53.08 56.13 57.19 57.17 61.57 59.13 52.08 55.49 56.13 57.84 58.01 59.33 60.32 56.54 57.20 60.29 62.80 62.58 64.09 66.45 67.12 67.74 68.26
56.93 56.52 56.34 55.07 54.32 53.83 55.40 60.26 60.12 59.29 60.52 56.61 56.29 55.52 57.02 60.18 58.47 58.61 58.83 54.17 53.50 52.92 51.76 55.15 53.88 52.26 56.75 57.35 57.87 58.46 56.70 56.40 59.31 61.39 57.74 55.93 56.60 58.90 61.61 62.14 62.43 64.84 66.76 67.49 68.16
56.64 56.38 55.72 54.13 53.91 53.99 57.83 58.71 57.49 58.12 55.24 57.98 57.99 58.16 59.51 60.46 55.11 57.22 60.13 53.72 51.74 49.76 52.96 53.44 51.16 55.07 56.08 56.27 55.61 57.52 55.55 56.40 57.94 59.18 59.08 58.28 56.95 60.26 61.02 61.10 61.74 65.30 65.58 67.38 68.32
55.82 55.96 54.42 53.71 53.81 56.59 59.42 58.40 60.62 60.26 56.13 56.11 58.15 57.25 57.54 59.16 54.64 55.50 58.16 54.75 52.30 50.78 51.34 50.68 53.18 55.03 54.57 53.72 53.16 54.28 53.66 55.51 55.44 58.50 59.08 56.49 57.04 57.46 60.12 61.62 63.20 64.37 66.54 66.93 68.31
55.37 54.68 53.74 52.78 55.02 60.06 59.52 60.97 61.48 60.60 53.02 52.24 54.83 56.85 57.61 56.90 52.85 57.63 58.65 55.24 52.61 50.29 51.65 52.08 54.28 53.72 53.51 53.16 54.49 52.42 55.20 56.59 55.80 56.11 51.31 57.46 49.89 53.88 58.71 58.86 62.05 63.39 66.83 66.42 67.68
54.31 53.87 52.94 51.87 58.75 58.90 59.08 61.41 62.25 59.63 44.13 51.76 53.76 59.71 56.82 54.25 54.44 54.20 57.42 55.17 50.75 50.96 51.66 50.13 51.43 50.94 50.78 52.93 54.56 53.27 57.40 57.21 56.52 56.63 54.22 54.67 51.04 55.71 60.36 57.62 59.62 62.31 66.19 67.34 68.48
53.99 52.99 52.54 56.54 59.78 60.31 61.47 60.87 59.79 50.70 41.43 48.99 53.29 52.84 53.13 53.97 53.20 54.71 54.45 55.94 54.87 51.09 51.66 50.89 53.45 52.70 52.06 54.23 53.32 58.25 57.28 57.35 57.72 55.78 49.59 53.54 52.91 54.59 57.02 59.90 59.89 61.72 65.18 67.48 67.99
52.43 51.42 53.05 58.98 58.84 61.47 61.42 59.45 51.10 45.79 50.10 48.44 49.79 51.80 52.42 51.92 51.82 52.69 51.61 50.47 50.59 47.79 48.08 49.84 50.37 53.54 56.35 53.38 54.23 57.32 55.44 49.26 47.79 48.09 48.60 54.70 53.33 54.22 58.82 62.31 63.96 62.36 63.64 66.38 68.53
51.15 50.56 55.37 59.90 62.26 61.10 60.44 55.71 45.06 46.84 48.03 51.46 51.49 51.50 50.30 51.81 51.72 51.79 50.73 49.48 51.82 51.07 49.99 47.03 44.95 52.98 57.30 55.01 52.82 53.71 53.85 47.41 42.66 45.42 48.35 53.56 50.16 53.95 60.33 62.52 65.30 65.96 66.23 65.11 68.21
50.59 59.92 60.91 61.87 61.64 60.66 57.77 49.20 49.22 48.43 50.11 49.57 51.54 50.33 50.33 51.83 52.01 51.62 51.82 50.98 52.81 54.05 50.06 48.89 47.06 53.51 56.85 57.66 57.82 54.09 51.71 54.95 49.46 52.32 49.33 51.87 53.88 58.22 59.86 61.55 63.49 63.98 66.12 65.17 67.32
58.81 60.65 60.40 61.96 61.88 60.35 55.50 47.14 50.13 52.31 51.13 51.66 48.19 50.71 48.64 50.25 50.53 51.01 51.37 53.65 52.61 54.45 55.69 52.51 47.68 51.72 53.66 57.34 58.00 57.51 58.04 50.68 50.71 44.07 43.26 49.03 50.49 51.62 56.66 59.57 61.56 61.51 64.04 66.66 68.01
59.87 56.06 60.45 61.97 61.94 58.27 51.75 50.87 51.63 53.87 53.45 50.11 49.60 49.69 50.68 49.99 51.15 50.50 51.01 53.68 54.70 53.94 55.48 54.23 51.70 50.90 53.16 53.31 52.99 53.96 54.04 54.57 53.72 49.62 45.52 46.20 49.03 60.10 59.41 61.85 61.23 59.98 63.46 66.13 66.75
56.55 52.06 61.31 62.01 55.39 57.31 52.88 52.74 50.69 52.57 53.05 52.01 51.87 50.37 50.46 51.21 50.19 49.63 49.36 52.34 55.38 55.13 51.74 54.53 51.80 48.41 49.91 54.27 55.43 55.56 54.20 54.45 48.57 48.60 50.80 49.16 49.84 62.02 62.51 62.48 63.91 61.76 61.68 63.63 66.64
53.18 57.96 61.74 60.18 51.77 52.58 53.96 52.51 53.02 52.09 52.05 50.99 50.43 51.98 52.60 50.81 48.62 50.77 51.72 55.15 55.63 54.46 53.42 54.65 50.82 46.41 48.08 51.66 54.81 53.15 55.19 55.58 53.84 52.64 49.38 46.20 48.81 62.33 63.12 63.03 64.22 63.87 62.82 63.06 63.99
54.51 51.83 57.31 58.12 57.42 54.27 52.73 52.35 51.76 53.78 52.71 51.92 51.34 53.36 52.41 50.66 52.01 50.05 50.58 53.71 55.31 55.12 54.54 56.14 51.76 49.08 45.77 47.66 51.58 50.96 53.66 55.57 53.68 48.88 48.97 48.35 49.95 57.52 60.74 62.19 62.95 64.35 65.33 64.02 65.88
55.15 53.68 55.73 51.87 52.98 54.17 54.82 53.36 50.88 49.80 51.95 53.26 51.50 51.52 51.04 49.02 49.82 49.38 50.64 51.08 53.37 55.19 55.24 53.54 48.78 50.50 50.84 51.06 51.53 51.22 53.23 53.58 53.30 53.02 50.64 51.37 51.56 54.70 60.40 61.96 62.33 63.97 65.24 65.19 65.33
54.30 55.26 59.02 57.39 55.75 55.33 50.62 52.80 51.45 51.12 51.70 50.50 50.91 51.44 52.22 51.07 51.30 49.18 50.84 51.14 49.68 54.42 53.14 53.66 49.54 50.22 48.15 50.46 51.42 49.98 52.63 53.79 54.53 55.07 55.48 55.23 55.18 61.56 62.90 62.59 62.62 63.07 63.85 64.47 66.31
56.33 58.09 56.54 52.29 55.73 54.63 53.66 52.71 52.65 52.81 52.30 53.38 52.58 52.09 51.27 52.36 53.89 55.31 55.34 53.76 54.00 52.40 51.20 51.12 49.28 48.19 44.72 50.04 50.17 47.87 51.41 53.01 53.98 56.63 56.37 53.51 58.37 61.33 60.93 61.81 60.01 60.98 61.74 61.99 63.76

GFSSW_sfc_wetblb_141.txt.gz
Wetbulb
58.90 58.87 58.46 58.20 58.42 58.62 58.64 58.45 58.64 58.77 58.58 58.16 57.98 58.06 58.91 59.26 59.19 61.29 57.98 59.83 64.25 64.08 67.01 64.48 63.43 67.42 71.00 68.20 70.44 70.17 61.78 59.11 56.77 58.57 62.50 66.30 65.05 67.85 68.97 66.96 67.02 68.14 67.74 69.28 71.10
59.36 59.18 58.39 58.07 58.62 58.35 58.01 58.06 58.43 58.15 57.88 58.15 58.07 58.52 59.04 59.65 60.82 58.14 62.13 64.95 63.94 67.05 62.00 62.01 60.19 65.64 66.39 64.93 66.94 65.87 62.13 60.19 64.00 61.94 63.44 64.75 64.83 65.57 65.37 65.06 65.36 66.73 69.06 70.33 71.01
58.98 58.87 58.72 58.10 58.22 58.64 58.62 58.30 58.07 58.05 57.74 57.65 58.07 58.42 58.88 60.54 60.45 60.12 68.22 64.72 66.31 67.30 62.72 62.98 62.13 65.02 63.86 65.21 64.88 65.76 62.32 64.90 64.75 62.63 64.74 64.41 64.94 66.97 64.68 63.39 65.46 65.37 67.60 69.35 70.02
58.65 58.60 58.60 58.16 58.22 58.11 58.64 58.46 57.76 57.44 57.62 57.84 58.29 58.78 59.43 61.73 53.62 63.33 68.85 67.77 68.19 66.00 60.31 60.24 60.91 62.27 61.92 62.06 64.33 62.76 65.99 66.18 65.44 64.84 62.61 63.42 65.94 63.42 64.90 65.05 67.39 68.66 69.29 69.40 68.98
58.33 58.32 57.93 57.34 57.19 57.54 57.85 57.48 57.05 57.10 57.46 57.76 58.26 58.98 61.20 59.60 58.71 68.34 69.82 67.17 62.03 61.29 58.16 59.30 59.59 63.03 61.07 61.98 64.11 64.43 65.57 66.66 66.32 65.14 65.07 64.92 64.78 64.66 64.37 66.53 68.59 69.12 69.12 68.45 68.51
58.13 58.12 57.90 57.26 57.44 57.26 56.81 56.63 56.12 56.39 57.13 57.80 58.51 58.82 61.91 55.72 64.77 66.64 65.01 60.51 59.86 58.93 58.02 59.98 60.47 63.68 62.38 62.23 63.53 65.64 65.92 65.21 66.43 65.74 63.43 62.59 63.22 65.37 64.93 67.16 67.46 67.74 67.50 67.74 68.03
57.54 57.58 57.79 57.71 57.32 57.32 57.01 55.91 55.96 56.25 56.74 57.88 59.03 61.96 60.64 59.20 64.62 62.71 61.27 59.34 58.34 58.43 56.83 60.54 62.63 62.00 62.38 63.47 66.73 66.49 62.59 65.08 63.79 65.02 62.43 62.10 58.18 60.58 65.47 66.48 65.52 65.83 66.98 67.50 68.10
57.39 57.53 57.47 57.36 57.09 56.76 56.59 55.99 56.23 57.18 57.38 58.12 59.50 63.87 57.42 63.40 64.44 62.86 62.69 59.30 58.16 58.62 58.62 59.09 61.41 61.01 61.96 66.89 64.39 62.57 62.93 59.39 63.66 63.66 63.37 60.60 53.45 60.82 64.35 65.34 64.29 64.71 66.11 67.07 68.37
57.41 57.31 57.19 57.10 56.38 55.70 55.20 55.57 58.17 58.71 58.52 59.80 62.76 63.38 56.08 60.76 59.34 62.48 62.90 59.35 58.00 57.88 58.80 57.96 59.87 59.63 62.11 61.36 59.82 60.15 55.41 56.65 60.25 64.42 60.69 59.00 55.52 60.68 65.99 66.46 63.68 64.95 66.39 66.24 68.17
57.55 57.17 56.89 56.37 55.35 54.84 54.51 55.49 58.43 58.54 61.01 64.55 63.63 59.95 59.88 57.31 59.46 60.63 62.30 57.06 56.57 55.97 54.80 55.96 57.90 56.53 60.29 58.58 51.80 51.04 56.88 58.78 58.49 60.49 59.70 57.49 56.27 59.90 62.05 64.52 63.49 65.11 65.89 66.22 67.28
57.23 56.86 56.58 55.77 55.08 54.39 56.05 62.12 61.90 61.88 63.17 56.44 56.64 56.03 57.58 59.23 60.28 59.23 60.18 55.87 55.08 53.81 50.94 54.88 53.46 52.38 56.26 58.74 58.42 56.14 57.15 55.34 60.60 62.81 60.41 57.33 57.08 58.41 61.25 62.57 62.52 63.10 64.39 65.44 66.61
56.57 55.95 55.41 55.20 54.59 54.43 57.84 60.90 60.10 60.90 56.69 58.63 58.25 57.96 59.20 60.43 55.19 57.35 59.61 53.05 52.67 50.18 53.71 52.58 51.14 55.56 57.40 59.05 57.13 56.64 56.07 56.17 59.37 62.62 61.56 59.34 57.81 58.97 59.84 60.57 62.03 63.90 63.30 65.31 67.50
55.78 55.17 54.82 54.43 53.84 57.62 62.00 61.17 63.27 63.27 57.79 56.96 58.34 57.51 58.13 59.79 55.40 55.50 59.00 55.40 53.11 51.61 51.85 51.69 53.11 57.30 55.41 56.28 54.77 54.96 54.49 55.53 55.69 59.52 60.45 59.51 56.95 57.61 59.78 60.94 62.03 63.94 65.62 65.18 65.04
55.27 54.68 54.25 52.94 55.15 63.45 61.45 63.30 63.71 63.57 54.40 54.11 56.19 56.84 58.28 57.61 53.93 58.25 59.45 56.57 53.79 51.95 52.25 53.15 56.26 54.13 54.12 53.86 55.34 52.60 56.00 55.43 55.54 56.42 49.59 59.06 51.02 57.73 59.76 59.04 60.34 62.00 62.66 66.24 68.42
55.06 54.33 53.29 52.21 59.80 61.00 62.04 63.86 63.17 62.37 46.25 53.36 54.88 60.63 57.99 55.72 55.13 55.27 58.39 56.20 52.40 52.28 53.13 51.87 52.43 52.33 52.65 53.57 55.84 53.93 57.99 56.53 56.75 55.58 55.85 54.38 53.02 54.74 61.04 57.72 58.69 62.15 64.75 64.70 65.85
54.64 53.23 52.09 58.88 61.90 62.28 63.55 63.33 61.99 51.98 44.30 50.98 54.98 54.49 54.50 54.81 54.12 55.29 55.34 57.55 56.03 52.48 52.87 52.85 54.81 54.16 53.45 54.00 55.15 56.52 55.85 57.02 57.15 56.00 50.50 53.26 53.41 53.22 58.12 60.07 59.52 62.01 65.22 65.75 65.97
53.61 51.94 52.94 60.79 61.09 63.82 63.10 60.46 52.48 47.09 52.38 50.45 51.66 53.56 54.29 52.97 53.01 53.99 52.55 51.97 51.36 49.48 49.76 50.77 51.31 53.29 53.98 52.79 55.05 54.01 53.96 49.37 48.40 49.11 49.04 55.34 52.50 54.55 60.37 62.86 63.87 62.69 64.67 67.25 68.42
52.30 51.12 57.58 61.16 63.99 62.76 61.48 56.20 48.23 49.54 49.19 53.19 52.73 52.48 51.62 53.03 53.32 52.66 51.94 50.99 52.58 52.44 51.22 48.86 46.18 52.01 55.09 54.09 52.87 53.30 53.74 49.41 40.95 46.46 46.74 55.51 51.36 52.83 60.22 63.64 64.71 64.94 65.19 67.04 67.78
51.16 61.69 62.11 62.65 63.39 62.83 57.54 50.96 50.85 50.72 51.79 50.22 52.30 51.35 51.67 52.34 53.01 52.70 53.20 52.80 53.90 54.84 51.20 50.42 48.76 53.88 55.76 55.81 56.50 54.11 51.13 55.12 50.13 52.92 50.52 51.42 55.12 59.10 60.46 62.35 62.71 63.13 65.42 66.37 66.90
58.05 60.05 60.32 63.63 64.66 61.06 55.83 49.79 52.64 53.14 52.14 51.88 49.54 51.84 50.56 52.16 51.21 51.95 52.22 54.52 53.41 54.49 56.05 53.94 48.87 53.26 54.23 55.77 57.11 55.74 57.43 50.72 51.47 45.26 44.61 48.93 51.53 50.84 57.81 59.54 61.46 62.07 63.02 66.03 68.27
59.10 56.50 62.70 64.35 63.94 58.67 53.11 53.56 53.32 54.67 53.90 50.96 50.89 50.97 51.95 51.47 51.95 51.61 52.54 54.79 55.07 55.19 56.05 54.73 52.77 51.68 54.00 52.59 51.89 53.73 52.07 54.59 53.94 51.68 45.19 45.53 48.17 59.37 59.56 62.06 62.28 61.73 62.45 64.74 67.62
56.60 52.76 63.65 63.63 55.05 57.37 54.44 55.56 52.53 54.08 54.42 52.90 52.55 52.17 51.68 52.71 51.94 51.25 51.03 53.60 56.64 54.91 52.24 55.96 53.03 49.87 51.45 55.36 57.43 54.45 51.01 55.22 49.97 50.38 51.34 45.87 47.03 63.24 63.27 63.79 64.23 63.16 63.79 66.32 66.81
55.26 56.12 63.49 61.78 51.29 53.67 56.58 54.93 54.62 53.38 53.09 52.35 51.48 52.82 53.31 51.57 50.00 51.93 52.29 55.91 55.58 54.26 54.61 56.26 51.93 47.54 48.86 52.71 55.59 52.80 53.27 54.18 52.39 51.47 49.53 45.54 48.23 64.42 64.69 64.70 65.33 63.17 63.52 64.73 65.93
55.54 51.48 58.00 58.62 56.32 55.01 55.18 54.07 52.76 54.90 53.88 53.90 52.71 53.61 52.76 51.40 53.25 51.27 51.75 54.74 55.08 54.61 58.77 56.63 50.61 49.80 46.46 49.00 53.33 51.74 53.33 54.35 53.61 45.60 50.04 49.60 52.77 60.49 62.91 63.62 65.22 66.37 64.48 63.52 64.74
56.24 52.98 58.58 53.28 53.47 54.05 56.57 55.17 52.68 52.37 54.06 55.05 52.91 52.45 52.31 50.73 50.85 50.54 51.68 52.97 53.98 56.17 54.60 53.85 49.23 50.98 51.43 52.01 52.39 52.30 49.54 50.57 53.57 53.28 49.63 51.27 52.63 54.85 62.10 64.36 64.90 66.41 66.99 65.26 63.92
55.36 55.20 59.20 56.76 57.95 55.09 51.60 53.69 53.58 54.08 53.60 52.16 52.03 52.72 52.86 51.68 52.49 50.76 52.22 52.66 51.80 55.05 54.16 54.44 49.75 50.64 49.23 50.63 49.86 49.77 51.93 52.78 53.61 54.26 54.75 53.34 53.73 62.76 65.14 65.59 65.06 64.79 65.67 65.66 64.92
59.19 58.13 55.63 52.97 55.44 54.78 53.93 54.19 54.09 55.40 55.27 54.85 54.16 53.46 52.54 53.47 55.30 55.57 55.53 55.48 55.24 53.13 53.10 51.71 50.72 48.72 46.01 49.89 50.03 47.37 50.75 51.67 52.56 55.41 54.77 51.26 57.46 63.36 63.01 63.80 63.64 63.09 63.20 64.21 64.43

GFSSW_sfc_wetblb_144.txt.gz
Wetbulb
59.77 59.77 59.40 58.84 59.06 59.19 58.91 58.87 59.11 59.26 58.90 59.08 59.04 58.90 59.16 59.94 59.56 59.89 56.61 61.82 64.66 68.00 66.26 64.16 64.15 64.48 68.26 68.47 70.41 68.06 59.26 56.50 57.96 58.09 61.70 65.86 64.18 67.89 66.92 65.61 66.80 67.79 66.76 67.86 69.89
59.72 59.59 59.48 59.05 59.05 59.03 59.48 59.20 59.14 58.97 58.87 58.57 58.82 58.95 59.12 59.71 59.57 58.15 64.93 68.34 64.26 68.72 57.59 61.84 60.78 63.24 65.65 65.62 66.95 63.95 58.82 59.25 63.53 62.16 62.04 65.09 63.36 64.76 64.44 63.73 64.48 65.82 68.27 68.84 69.34
59.46 59.45 59.42 58.97 59.02 58.91 59.07 59.30 59.11 58.79 58.41 58.66 58.80 59.01 59.34 59.64 59.83 60.14 68.43 68.26 68.47 66.90 61.57 63.05 62.60 61.46 63.28 65.01 63.68 64.36 60.64 64.15 63.74 64.37 64.21 64.33 64.45 66.59 63.24 61.52 64.52 63.77 66.31 67.70 68.09
59.08 59.03 59.05 58.23 58.29 58.11 58.40 58.69 58.33 58.11 58.26 58.55 58.83 59.18 59.89 59.92 54.46 64.76 70.77 68.37 68.86 63.95 62.40 60.01 59.85 59.17 61.11 60.75 63.82 62.66 65.79 65.87 65.16 64.67 62.52 63.82 65.00 64.47 64.95 63.78 67.20 67.65 67.79 67.96 67.27
58.66 58.76 58.69 58.43 58.25 58.52 58.27 57.69 57.74 57.40 57.80 58.41 58.84 59.10 60.31 60.09 59.82 69.13 71.31 67.95 61.41 60.84 60.39 58.37 58.78 59.75 59.23 60.99 63.58 61.51 65.29 66.04 66.28 64.20 63.88 64.62 63.69 64.09 64.54 66.59 68.19 68.75 68.10 67.37 66.82
58.32 58.30 58.27 58.28 58.48 58.27 57.81 57.72 57.12 56.98 57.38 58.11 58.97 59.27 59.77 57.11 64.01 67.39 63.20 59.92 59.34 59.46 58.15 59.27 59.59 62.09 61.29 61.66 63.68 62.68 63.97 64.96 64.65 64.38 63.79 62.27 62.82 64.80 64.54 66.94 66.52 67.12 66.75 67.29 67.09
58.24 58.20 58.04 58.17 58.15 57.87 57.57 57.25 57.10 57.22 57.61 58.34 59.13 60.95 61.39 59.59 63.29 63.11 62.48 58.92 59.53 58.88 57.54 59.63 61.49 61.06 62.56 60.73 65.01 65.40 61.76 64.24 65.04 64.57 62.72 62.20 58.90 60.69 65.12 66.66 65.00 65.80 66.49 67.03 67.29
57.96 57.88 57.70 57.65 57.63 57.04 56.47 55.87 56.69 58.11 59.04 58.77 59.15 62.19 58.10 63.33 64.61 62.75 61.80 58.96 58.95 58.93 58.50 59.68 60.85 60.30 60.59 64.68 61.88 60.30 63.48 58.03 62.72 64.00 62.07 61.01 53.95 60.76 64.31 64.19 63.93 64.88 65.96 66.13 65.92
57.68 57.58 57.52 57.39 56.77 56.18 55.56 55.75 57.76 60.35 60.31 59.41 61.32 62.64 56.38 62.88 59.20 62.70 63.15 59.81 57.40 57.32 58.32 58.87 58.13 57.76 59.14 59.08 58.25 58.79 54.44 56.29 54.93 64.03 60.85 59.07 54.67 59.33 63.55 63.25 63.52 64.90 66.10 66.55 64.85
57.66 57.46 56.78 56.90 56.33 55.68 55.13 55.70 60.13 59.91 60.99 63.94 64.06 59.76 60.09 57.60 59.83 60.62 62.29 58.32 56.56 55.91 54.78 54.70 55.56 55.22 56.13 56.36 50.91 52.03 55.20 56.13 55.54 61.28 61.01 58.28 57.07 58.71 60.85 61.92 62.71 64.04 64.54 65.30 65.43
57.30 56.35 56.31 56.00 55.50 54.81 56.40 61.73 61.66 60.55 63.58 58.65 57.69 56.58 57.44 58.62 59.42 58.76 60.38 57.26 55.58 54.43 50.00 52.54 51.56 50.78 53.44 57.97 58.60 58.82 56.37 53.86 59.22 62.16 58.54 56.85 56.59 57.56 59.12 61.13 61.85 63.43 64.89 65.63 66.03
56.19 56.15 55.98 55.31 54.87 54.48 55.60 60.48 60.17 61.56 56.93 59.10 58.91 58.27 59.15 59.87 54.81 57.06 58.97 53.05 52.44 49.39 51.98 51.32 49.78 54.20 56.00 58.80 58.42 58.75 56.03 53.93 60.13 62.04 60.84 58.80 57.05 58.99 60.19 60.50 62.15 62.93 64.08 65.56 64.55
55.73 55.54 55.13 54.54 53.97 57.03 61.96 62.05 64.35 63.58 57.51 57.06 58.09 57.58 58.07 59.42 55.23 54.64 57.71 55.97 52.09 51.04 51.00 51.07 53.05 55.43 55.11 55.83 55.53 55.51 55.90 55.25 55.87 59.79 60.67 59.89 56.39 57.98 59.66 61.28 62.69 62.88 64.25 65.65 65.19
55.50 55.09 54.56 52.81 55.30 63.56 61.49 63.89 64.29 64.18 53.10 54.27 56.22 56.88 58.52 57.84 53.83 58.30 59.76 56.23 53.88 51.69 52.05 52.56 56.23 54.67 54.20 53.22 54.41 51.40 57.73 57.22 56.84 54.71 52.23 58.97 49.79 56.09 57.75 58.32 60.23 61.21 63.11 64.31 64.49
55.38 54.67 53.41 52.16 56.50 59.51 63.04 64.41 63.87 61.84 45.42 54.24 55.07 60.19 58.41 55.88 55.41 55.26 59.05 56.28 52.85 52.51 52.86 51.66 53.00 52.56 52.45 52.95 55.33 53.10 57.78 56.47 55.97 54.77 53.65 54.90 52.61 56.87 58.35 56.13 59.49 60.87 61.62 64.20 64.38
55.42 54.73 53.06 58.30 58.84 60.83 63.62 64.06 61.83 51.68 44.95 51.37 55.28 54.65 54.44 54.88 54.36 55.27 54.77 57.45 57.05 53.13 53.18 53.13 55.49 54.37 53.39 55.06 55.33 56.40 54.91 55.12 55.95 54.12 48.18 52.89 53.45 55.53 56.04 58.08 60.05 62.26 62.34 64.14 64.51
54.02 53.18 52.99 58.64 59.86 64.47 63.78 60.56 51.20 47.27 53.43 50.98 52.11 53.69 54.44 52.88 53.16 53.76 52.72 51.65 50.70 48.66 48.89 51.45 51.20 53.40 54.65 51.76 54.07 53.11 51.06 46.33 46.28 47.07 45.71 54.92 52.72 56.24 60.17 62.94 62.64 62.33 63.06 64.21 65.30
52.45 51.60 55.33 58.91 60.98 63.02 61.32 55.33 47.03 52.63 49.97 54.07 52.46 52.65 51.90 53.29 53.51 52.82 52.22 50.76 52.74 52.51 50.65 49.16 46.39 51.20 53.58 51.49 51.63 52.29 50.32 46.37 41.71 42.76 43.72 52.19 49.96 54.43 60.41 64.89 65.10 64.13 64.16 64.79 66.11
51.50 59.80 59.27 61.71 61.98 61.26 57.48 49.42 50.80 53.55 52.50 50.63 52.48 50.67 51.52 52.44 53.11 52.50 53.03 52.76 53.88 54.65 50.39 50.45 48.57 53.95 54.54 55.17 54.51 53.22 50.48 54.65 49.69 50.11 47.08 51.37 54.19 58.64 61.90 63.11 63.73 63.28 64.52 64.62 66.90
57.09 56.79 60.33 61.62 62.09 59.62 54.61 48.17 53.60 55.48 52.91 51.82 48.86 52.36 50.51 52.02 51.22 51.96 52.49 54.55 53.13 54.55 55.78 53.10 48.99 54.27 54.27 55.54 55.30 54.07 56.68 50.53 51.72 43.14 43.48 49.08 50.03 48.08 58.12 60.59 62.52 62.58 63.20 64.80 66.82
57.57 56.03 61.10 63.12 61.71 56.94 51.23 52.27 54.99 56.03 54.19 50.99 50.56 51.11 51.84 51.97 52.00 52.00 52.72 54.99 55.27 55.02 55.61 53.85 51.86 51.59 53.74 52.30 51.20 52.39 51.69 51.88 52.57 48.04 45.97 45.72 48.10 57.39 55.84 58.67 61.95 61.50 62.94 64.37 65.27
57.52 52.19 63.23 62.75 53.28 54.89 52.73 54.99 53.77 54.94 55.29 52.71 52.52 52.62 51.93 52.83 51.59 51.27 51.10 54.53 57.01 56.09 50.95 54.37 52.64 49.13 51.11 55.32 56.09 54.60 52.49 52.16 48.20 45.84 49.26 49.78 49.22 56.89 57.05 59.71 63.11 63.18 63.77 65.56 68.38
55.12 55.19 63.63 61.77 49.83 50.61 54.82 55.41 56.81 55.49 53.96 52.34 51.66 52.77 53.66 51.59 50.07 52.40 52.62 56.32 56.45 53.46 53.95 55.52 51.49 46.52 48.21 52.45 54.95 53.06 53.96 52.89 53.38 53.18 47.72 44.56 49.02 57.31 58.52 61.57 63.82 62.95 63.68 66.77 67.60
55.97 51.58 57.84 59.62 57.50 52.52 53.17 54.95 54.32 56.19 54.04 54.20 53.09 53.92 52.83 51.70 53.32 52.02 52.07 54.47 55.77 54.34 60.27 58.05 49.35 47.53 45.09 48.61 52.34 51.05 53.01 54.08 52.44 49.32 49.62 48.55 51.30 53.63 56.20 59.87 63.69 62.96 62.86 64.19 65.64
56.75 53.29 55.97 53.31 54.93 53.66 53.45 54.60 54.53 53.14 54.65 54.53 53.41 52.30 52.02 50.94 51.66 51.18 52.17 53.22 54.91 57.54 54.70 51.69 48.12 50.03 50.19 50.68 50.90 50.63 50.91 52.61 51.50 51.58 49.67 51.16 51.50 53.57 53.44 55.62 64.95 64.85 63.06 62.49 62.65
55.47 54.63 57.15 56.09 57.51 56.37 51.00 52.32 54.13 54.82 54.67 52.57 52.02 52.83 53.06 51.72 52.91 51.24 52.32 52.80 51.65 54.51 53.89 54.10 49.87 50.61 47.97 50.15 50.09 47.83 48.64 50.24 52.32 52.47 52.40 50.31 52.13 57.81 58.68 61.85 65.23 65.90 66.15 64.60 62.97
60.53 60.05 56.30 51.82 53.73 53.69 54.67 53.54 53.17 55.71 56.79 56.22 54.38 53.31 52.68 53.23 55.69 55.67 54.97 54.53 54.63 53.39 52.57 52.92 51.08 49.03 45.00 48.76 48.85 46.26 49.73 50.41 51.48 53.17 53.54 50.33 56.82 55.23 54.70 58.32 63.90 64.59 65.62 66.44 67.22